Location: Neu-Ulm
(48.3873°N, 10.0192°E)
Time: 14:09:00
(UTC+02:00)

ISS - Pass Details

Date: 07 January 2018
Orbit: 402 x 409 km, 51.6° (Epoch: 21 August)

Event Time Altitude Azimuth Distance (km) Brightness Sun altitude
Exits shadow 05:59:53 45° 20° (NNE) 590 -3.0 -20.8°
Drops below altitude 10° 06:02:54 10° 78° (ENE) 1,516 0.0 -20.3°
Sets 06:05:04 0° 84° (E) 2,384 1.4 -19.9°
